User: anonymous   Login
Location: Kawakawa
(35.3830°S, 174.0670°E)
Time: 15:56:34
(UTC+13:00)
Language:

H-2A R/B - Orbit

View from above orbital plane
View from above orbital plane
View from above satellite
View from above satellite

Ground track
Ground track

The orbit data is extracted from the following two-line orbital elements,

1 27601U 02056E   19289.18751684  .00000038  00000-0  28887-4 0  9996
2 27601  98.2620 332.1359 0070973 288.1092 112.1266 14.31912265879598
Epoch (UTC): 16 October 2019 04:30:01
Eccentricity: 0.0070973
inclination: 98.2620°
perigee height: 734 km
apogee height: 836 km
right ascension of ascending node: 332.1359°
argument of perigee: 288.1092°
revolutions per day: 14.31912265
mean anomaly at epoch: 112.1266°
orbit number at epoch: 87959

The dashed part of the orbit path shows where the satellite is in the earth's shadow,  

DLR